[[[{"header":{"parameterUnit":"kt","parameterCategory":2,"dx":1,"dy":1,"la1":30.253999710083008,"la2":30.299108505249023,"lo1":-89.0895004272461,"lo2":-89.04439544677734,"nx":28,"ny":28,"refTime":"2022-09-29T21:00:00:Z","depth":0,"parameterNumber":1,"parameterNumberName":"U-component_of_WINDS"},"data":[-1.086,-1.0917,-1.0933,-1.1004,-1.103,-1.1082,-1.1105,-1.1136,-1.1165,-1.1228,-1.1266,-1.1287,-1.1322,-1.1371,-1.1413,-1.1421,-1.1438,-1.1446,-1.1455,-1.1405,-1.1399,-1.1394,-1.1382,-1.1449,-1.1449,-1.1505,-1.1505,-1.1506,-1.0819,-1.0846,-1.0889,-1.0941,-1.0977,-1.0979,-1.102,-1.105,-1.1096,-1.1132,-1.1171,-1.1227,-1.1273,-1.1307,-1.1353,-1.1379,-1.1383,-1.1391,-1.139,-1.1396,-1.1343,-1.133,-1.1387,-1.1387,-1.1387,-1.1387,-1.1387,-1.1387,-1.075,-1.0783,-1.0825,-1.0872,-1.0902,-1.0936,-1.0971,-1.0997,-1.1039,-1.1091,-1.1101,-1.1153,-1.1192,-1.1257,-1.1283,-1.1323,-1.1318,-1.1332,-1.1335,-1.1339,-1.134,-1.1259,-1.1332,-1.1332,-1.1332,-1.1332,-1.1332,0,-1.0704,-1.0716,-1.0758,-1.0805,-1.084,-1.0879,-1.0916,-1.0938,-1.0967,-1.1,-1.105,-1.1081,-1.1142,-1.119,-1.1238,-1.1262,-1.1269,-1.1271,-1.128,-1.1277,-1.1267,-1.1274,-1.1187,-1.1269,-1.1269,-1.1268,-1.1268,-1.1268,-1.0636,-1.0674,-1.0725,-1.0753,-1.0778,-1.0822,-1.0852,-1.0875,-1.0906,-1.0955,-1.0983,-1.1032,-1.1073,-1.1149,-1.1179,-1.1225,-1.1229,-1.1258,-1.1236,-1.123,-1.123,-1.1228,-1.1232,-1.1263,-1.1263,-1.1264,-1.1264,0,-1.0596,-1.0623,-1.0687,-1.0735,-1.0748,-1.0785,-1.0826,-1.086,-1.0882,-1.0933,-1.0946,-1.0981,-1.1029,-1.1055,-1.1115,-1.1127,-1.1189,-1.119,-1.1175,-1.1177,-1.1207,-1.1204,-1.1298,-1.1311,-1.1241,-1.1241,-1.1242,0,-1.055,-1.0598,-1.0636,-1.0671,-1.0725,-1.0749,-1.0801,-1.0826,-1.0861,-1.0901,-1.0912,-1.0949,-1.0977,-1.1018,-1.1036,-1.1091,-1.1102,-1.1115,-1.1119,-1.1115,-1.1113,-1.1133,-1.113,-1.1127,-1.1127,-1.1126,-1.1126,0,-1.0486,-1.0563,-1.062,-1.0643,-1.0699,-1.0725,-1.075,-1.0791,-1.082,-1.0862,-1.0881,-1.0928,-1.0954,-1.0989,-1.1013,-1.0996,-1.108,-1.1063,-1.1093,-1.1093,-1.1112,-1.1111,-1.1186,-1.1125,-1.1125,-1.1125,-1.1125,0,-1.0453,-1.0496,-1.0575,-1.0623,-1.0642,-1.068,-1.0729,-1.0767,-1.0809,-1.0824,-1.0857,-1.0868,-1.0918,-1.0899,-1.0968,-1.0941,-1.0965,-1.0982,-1.0985,-1.0993,-1.0971,-1.1011,-1.1078,-1.1087,-1.0997,-1.0996,-1.0995,0,-1.0373,-1.0461,-1.0482,-1.0557,-1.0602,-1.0612,-1.0654,-1.0692,-1.0715,-1.0755,-1.078,-1.0827,-1.0818,-1.0837,-1.0867,-1.0895,-1.0931,-1.0891,-1.0949,-1.0951,-1.0939,-1.1001,-1.1005,-1.106,-1.0981,-1.0983,-1.0984,0,-1.0314,-1.0384,-1.0396,-1.0423,-1.0477,-1.0515,-1.0563,-1.0615,-1.0641,-1.0682,-1.0723,-1.0789,-1.0785,-1.0816,-1.0831,-1.0861,-1.0907,-1.0854,-1.0855,-1.0863,-1.0977,-1.0981,-1.099,-1.091,-1.0912,-1.0913,-1.0973,0,-1.026,-1.0308,-1.0342,-1.0401,-1.0434,-1.0483,-1.0513,-1.0544,-1.0555,-1.0579,-1.064,-1.0679,-1.0732,-1.075,-1.0761,-1.0823,-1.0817,-1.0813,-1.0798,-1.0838,-1.0859,-1.0867,-1.0765,-1.0765,-1.0764,-1.0764,0,0,-1.0177,-1.0247,-1.0271,-1.032,-1.035,-1.0361,-1.0411,-1.0441,-1.0503,-1.0523,-1.0514,-1.0613,-1.0645,-1.0717,-1.0732,-1.0753,-1.0767,-1.0753,-1.0819,-1.0825,-1.083,-1.0852,-1.086,-1.0764,-1.0764,-1.0764,-1.0764,0,-1.0164,-1.0197,-1.0246,-1.0279,-1.0328,-1.0352,-1.0363,-1.0415,-1.0433,-1.0493,-1.0503,-1.0543,-1.0623,-1.0656,-1.0683,-1.0744,-1.075,-1.0757,-1.078,-1.0815,-1.0822,-1.0827,-1.0849,-1.0857,-1.0763,-1.0763,-1.0763,0,-1.0113,-1.0151,-1.0178,-1.0247,-1.028,-1.0326,-1.0317,-1.0367,-1.0401,-1.0413,-1.0473,-1.0499,-1.0546,-1.061,-1.064,-1.0634,-1.0732,-1.0706,-1.0709,-1.0713,-1.0749,-1.0756,-1.0763,-1.0676,-1.0675,-1.0675,0,0,-1.0098,-1.0143,-1.0193,-1.0247,-1.0267,-1.0303,-1.0331,-1.0346,-1.0388,-1.0405,-1.044,-1.048,-1.0526,-1.0556,-1.0602,-1.0667,-1.0679,-1.0694,-1.0699,-1.0702,-1.0708,-1.0744,-1.0752,-1.0673,-1.0673,-1.0673,0,0,-1.0091,-1.0151,-1.0155,-1.0222,-1.0262,-1.0315,-1.0347,-1.0353,-1.0398,-1.0396,-1.0423,-1.0435,-1.0496,-1.0521,-1.0496,-1.0597,-1.0582,-1.0588,-1.0579,-1.0584,-1.0588,-1.0582,-1.0494,0,0,0,0,0,-1.0095,-1.0143,-1.0147,-1.0163,-1.0251,-1.0313,-1.0324,-1.0348,-1.0336,-1.0361,-1.0391,-1.0395,-1.0513,-1.0491,-1.0506,-1.0535,-1.0652,-1.0656,-1.0659,-1.0663,-1.0668,-1.0673,0,0,0,0,0,0,-1.0102,-1.0121,-1.0145,-1.0199,-1.022,-1.0311,-1.0297,-1.0305,-1.0334,-1.0334,-1.0389,-1.0397,-1.0418,-1.0485,-1.0498,-1.0525,-1.0489,-1.0654,-1.0657,-1.066,-1.0664,-1.0669,-1.0673,0,0,0,0,0,-1.0107,-1.0123,-1.0258,-1.0199,-1.0216,-1.026,-1.0295,-1.0302,-1.0325,-1.0372,-1.038,-1.0341,-1.0419,-1.0432,-1.0493,-1.0519,-1.048,-1.0485,-1.0656,-1.0658,-1.066,-1.0667,0,0,0,0,0,0,-1.0111,-1.0129,-1.0262,-1.0268,-1.0183,-1.0255,-1.0268,-1.0299,-1.0361,-1.0369,-1.0325,-1.0324,-1.0419,-1.0429,-1.0439,-1.0515,-1.0473,-1.0478,-1.0481,-1.0658,-1.0659,-1.0661,0,0,0,0,0,0,-1.0121,-1.0134,-1.0265,-1.0244,-1.0248,-1.0251,-1.0262,-1.0318,-1.0362,-1.0311,-1.0312,-1.0324,-1.0404,-1.0428,-1.0436,-1.0522,-1.0467,-1.0472,-1.0475,-1.0477,-1.0659,-1.0661,0,0,0,0,0,0,-1.0127,-1.0138,-1.0243,-1.0246,-1.0249,-1.032,-1.0301,-1.039,-1.0343,-1.0308,-1.034,-1.0338,-1.0403,-1.0411,-1.0433,-1.0516,-1.052,-1.0467,-1.047,-1.0473,-1.0474,0,0,0,0,0,0,0,-1.0132,-1.0049,-1.0225,-1.0247,-1.025,-1.0326,-1.0327,-1.0329,-1.0343,-1.0342,-1.034,-1.0339,-1.044,-1.0445,-1.045,-1.0511,0,0,-1.0467,-1.0469,0,0,0,0,0,0,0,0,-1.0044,-1.0047,-1.0226,-1.0227,-1.0228,-1.0326,-1.0327,-1.0329,-1.0343,-1.0342,-1.034,-1.0339,-1.0441,-1.0445,-1.045,0,0,0,0,0,0,0,0,0,0,0,0,0,0,0,-1.0226,-1.0227,0,-1.0326,-1.0327,-1.0328,-1.0343,-1.0342,-1.0341,-1.034,-1.0442,-1.0446,-1.0449,0,0,0,0,0,0,0,0,0,0,0,0,0,0,0,0,0,0,0,0,0,0,0,0,0,0,0,0,0,0,0,0,0,0,0,0,0,0,0,0,0,0,0,0,0,0,0,0,0,0,0,0,0,0,0,0,0,0,0,0,0,0,0,0,0,0,0,0,0]}],[{"header":{"parameterUnit":"kt","parameterCategory":2,"dx":1,"dy":1,"la1":30.253999710083008,"la2":30.299108505249023,"lo1":-89.0895004272461,"lo2":-89.04439544677734,"nx":28,"ny":28,"refTime":"2022-09-29T21:00:00:Z","depth":0,"parameterNumber":2,"parameterNumberName":"V-component_of_WINDS"},"data":[-16.3804,-16.3932,-16.3922,-16.4061,-16.4075,-16.4167,-16.4196,-16.4232,-16.4256,-16.4362,-16.4421,-16.4419,-16.4435,-16.4499,-16.456,-16.4556,-16.4583,-16.4639,-16.4626,-16.4391,-16.4357,-16.4325,-16.4296,-16.4645,-16.4645,-16.4871,-16.4873,-16.4875,-16.3641,-16.3657,-16.3727,-16.3787,-16.3847,-16.3788,-16.3829,-16.3882,-16.3964,-16.3994,-16.4049,-16.414,-16.4208,-16.4204,-16.4266,-16.4323,-16.4297,-16.4341,-16.4336,-16.434,-16.4088,-16.4057,-16.4362,-16.4362,-16.4361,-16.4361,-16.4361,-16.4361,-16.334,-16.3416,-16.3446,-16.3521,-16.3547,-16.3586,-16.3655,-16.3651,-16.3716,-16.3782,-16.3751,-16.3841,-16.3866,-16.3931,-16.3948,-16.4017,-16.3964,-16.4006,-16.4017,-16.4029,-16.4046,-16.3727,-16.4026,-16.4025,-16.4024,-16.4023,-16.4022,0,-16.3116,-16.3103,-16.3166,-16.3229,-16.3282,-16.3327,-16.3365,-16.3407,-16.3364,-16.3419,-16.3497,-16.3538,-16.3619,-16.3688,-16.3741,-16.3748,-16.3687,-16.3678,-16.3708,-16.3726,-16.3738,-16.3735,-16.3328,-16.3669,-16.3666,-16.3663,-16.3662,-16.366,-16.2814,-16.2902,-16.2924,-16.2971,-16.2988,-16.3063,-16.3104,-16.3059,-16.3105,-16.3143,-16.3209,-16.3278,-16.333,-16.3453,-16.344,-16.3499,-16.3469,-16.3602,-16.3477,-16.3493,-16.3474,-16.347,-16.3479,-16.3627,-16.3632,-16.3635,-16.3638,0,-16.2645,-16.2622,-16.2753,-16.2763,-16.2768,-16.2862,-16.2869,-16.294,-16.2925,-16.3021,-16.304,-16.3016,-16.309,-16.3056,-16.3131,-16.3111,-16.3264,-16.3233,-16.3258,-16.325,-16.3367,-16.3357,-16.3747,-16.3797,-16.3433,-16.3436,-16.3439,0,-16.2378,-16.2493,-16.2452,-16.2529,-16.2656,-16.2607,-16.2733,-16.2733,-16.2751,-16.2825,-16.2751,-16.2822,-16.2765,-16.2831,-16.28,-16.2919,-16.2932,-16.2924,-16.2914,-16.2931,-16.2933,-16.2952,-16.2936,-16.2886,-16.2885,-16.2883,-16.2881,0,-16.2117,-16.2227,-16.2352,-16.2372,-16.2391,-16.245,-16.246,-16.2478,-16.2517,-16.2561,-16.2586,-16.264,-16.267,-16.2712,-16.2673,-16.259,-16.2816,-16.2693,-16.2807,-16.2808,-16.2858,-16.2855,-16.321,-16.2879,-16.2878,-16.2878,-16.2877,0,-16.1896,-16.1945,-16.2127,-16.2141,-16.2171,-16.2251,-16.2303,-16.2363,-16.2387,-16.2374,-16.2407,-16.2351,-16.245,-16.2331,-16.2467,-16.237,-16.2404,-16.2403,-16.2411,-16.2417,-16.2286,-16.2492,-16.2833,-16.2868,-16.2425,-16.2421,-16.2418,0,-16.1605,-16.1781,-16.174,-16.1912,-16.1988,-16.1901,-16.1988,-16.2011,-16.2,-16.2061,-16.2046,-16.2115,-16.2019,-16.2035,-16.2107,-16.2094,-16.222,-16.2076,-16.2164,-16.2168,-16.2163,-16.2476,-16.2536,-16.2762,-16.2369,-16.2374,-16.2378,0,-16.1376,-16.1397,-16.143,-16.1452,-16.1473,-16.1534,-16.1635,-16.1692,-16.1736,-16.1767,-16.1849,-16.1942,-16.1875,-16.1901,-16.1859,-16.1936,-16.2133,-16.1851,-16.185,-16.1905,-16.234,-16.2397,-16.2436,-16.2088,-16.2094,-16.2099,-16.2339,0,-16.1053,-16.1134,-16.1223,-16.1269,-16.131,-16.1414,-16.1377,-16.1425,-16.1382,-16.1366,-16.1485,-16.1489,-16.1543,-16.1575,-16.1532,-16.1717,-16.168,-16.1605,-16.1486,-16.1691,-16.1769,-16.1801,-16.1373,-16.1369,-16.1366,-16.1364,0,0,-16.0781,-16.0897,-16.0844,-16.0939,-16.097,-16.0874,-16.0989,-16.1007,-16.1046,-16.107,-16.1004,-16.1136,-16.1141,-16.1288,-16.1349,-16.1369,-16.1399,-16.1327,-16.1593,-16.1619,-16.1643,-16.1727,-16.1761,-16.1358,-16.1357,-16.1356,-16.1355,0,-16.0654,-16.0666,-16.0779,-16.0797,-16.0821,-16.0798,-16.0826,-16.083,-16.0824,-16.0938,-16.0854,-16.0919,-16.1023,-16.1042,-16.1064,-16.1309,-16.1241,-16.1328,-16.1476,-16.1563,-16.1593,-16.1619,-16.1708,-16.1741,-16.1347,-16.1347,-16.1348,0,-16.0423,-16.0428,-16.0478,-16.0543,-16.0557,-16.0634,-16.0502,-16.0587,-16.0644,-16.0528,-16.0642,-16.0638,-16.0656,-16.0799,-16.0861,-16.0801,-16.11,-16.0996,-16.1015,-16.1021,-16.1103,-16.1139,-16.1171,-16.0747,-16.0745,-16.0744,0,0,-16.0318,-16.0392,-16.038,-16.0513,-16.0527,-16.0493,-16.0529,-16.0489,-16.0508,-16.0516,-16.0509,-16.053,-16.059,-16.063,-16.0684,-16.0845,-16.0845,-16.0924,-16.0952,-16.0976,-16.0994,-16.1082,-16.1118,-16.0736,-16.0736,-16.0736,0,0,-16.0266,-16.0259,-16.0212,-16.0361,-16.0385,-16.0378,-16.046,-16.0402,-16.0445,-16.0429,-16.0361,-16.0363,-16.0495,-16.0493,-16.0402,-16.064,-16.0523,-16.0544,-16.0637,-16.0672,-16.0699,-16.0697,-16.0263,0,0,0,0,0,-16.0116,-16.026,-16.0218,-16.0237,-16.0315,-16.0403,-16.0412,-16.0361,-16.0281,-16.0348,-16.0332,-16.0255,-16.0431,-16.0349,-16.0368,-16.0469,-16.0644,-16.066,-16.0676,-16.0833,-16.087,-16.0902,0,0,0,0,0,0,-16.0123,-16.0147,-16.0214,-16.0215,-16.0232,-16.0397,-16.025,-16.024,-16.0273,-16.0257,-16.0261,-16.0255,-16.0212,-16.0336,-16.0353,-16.0451,-16.0257,-16.065,-16.0664,-16.0677,-16.0846,-16.0876,-16.0902,0,0,0,0,0,-16.0129,-16.0147,-16.0287,-16.0212,-16.0227,-16.0195,-16.0244,-16.0234,-16.0258,-16.0233,-16.0225,-16.0217,-16.0216,-16.0227,-16.0346,-16.0444,-16.0244,-16.0251,-16.0659,-16.067,-16.068,-16.0861,0,0,0,0,0,0,-16.0133,-16.0138,-16.0289,-16.0291,-16.0153,-16.0184,-16.0187,-16.023,-16.0231,-16.0225,-16.0185,-16.0173,-16.0221,-16.0228,-16.0237,-16.0445,-16.0234,-16.0241,-16.0245,-16.0668,-16.0676,-16.0684,0,0,0,0,0,0,-16.0128,-16.0141,-16.029,-16.0219,-16.0212,-16.0175,-16.0178,-16.0269,-16.0233,-16.0183,-16.0172,-16.018,-16.0206,-16.023,-16.0237,-16.0382,-16.0226,-16.0233,-16.0238,-16.024,-16.0675,-16.0681,0,0,0,0,0,0,-16.0133,-16.0144,-16.0217,-16.0213,-16.0207,-16.0232,-16.0254,-16.0337,-16.0175,-16.0184,-16.0158,-16.0151,-16.021,-16.0215,-16.0237,-16.038,-16.0381,-16.0227,-16.0231,-16.0234,-16.0236,0,0,0,0,0,0,0,-16.0136,-16.0072,-16.0274,-16.0208,-16.0203,-16.0315,-16.0316,-16.0316,-16.0173,-16.0167,-16.016,-16.0154,-16.0189,-16.0196,-16.0203,-16.0378,0,0,-16.0226,-16.0229,0,0,0,0,0,0,0,0,-16.0066,-16.007,-16.0274,-16.0275,-16.0275,-16.0315,-16.0316,-16.0316,-16.0172,-16.0167,-16.0161,-16.0156,-16.0191,-16.0197,-16.0203,0,0,0,0,0,0,0,0,0,0,0,0,0,0,0,-16.0274,-16.0275,0,-16.0315,-16.0316,-16.0316,-16.0171,-16.0167,-16.0163,-16.0158,-16.0192,-16.0197,-16.0202,0,0,0,0,0,0,0,0,0,0,0,0,0,0,0,0,0,0,0,0,0,0,0,0,0,0,0,0,0,0,0,0,0,0,0,0,0,0,0,0,0,0,0,0,0,0,0,0,0,0,0,0,0,0,0,0,0,0,0,0,0,0,0,0,0,0,0,0,0]}]]]